Location: Unspecified
(35.6961°N, 0.0000°E)
Time: 01:17:51
(UTC+00:00)

S-56A Canister/Altair - Pass Details

Date: 31 May 2019
Orbit: 633 x 2499 km, 38.9° (Epoch: 16 June)

Event Time Altitude Azimuth Distance (km) Brightness Sun altitude
Rises 00:00:03 0° 261° (W) 2,981 - -32.5°
Reaches altitude 10° 00:02:08 10° 263° (W) 2,148 - -32.4°
Maximum altitude 00:06:59 74° 349° (NNW) 860 - -32.4°
Exits shadow 00:09:02 42° 64° (ENE) 1,256 8.7 -32.4°
Drops below altitude 10° 00:13:46 10° 75° (ENE) 2,963 10.7 -32.3°
Sets 00:17:07 0° 77° (ENE) 4,219 11.5 -32.3°
